This demonstration page uses our WeatherBlox Daily Observations layout. Learn more.

Left ArrowRight Arrow

36.17497, -115.13722

Hourly Observations for March 11, 2021

Temp ( °F °C ) Dew Point ( °F °C ) Humidity (%) Winds ( mph kmh ) Pressure ( in mb ) Visibility ( mi km ) Precip ( " mm )
12:53 am 00:53 Clear 45 7.2 23 -5 42 42 S 12 19 29.89 1012 10 16 0.00 0.00
1:53 am 01:53 Partly Cloudy 46 7.8 23 -5 40 40 S 5 7 29.90 1012 10 16 0.00 0.00
2:53 am 02:53 Clear 45 7.2 22 -5.6 40 40 S 12 19 29.88 1012 10 16 0.00 0.00
3:53 am 03:53 Clear 44 6.7 23 -5 43 43 SE 7 11 29.91 1013 10 16 0.00 0.00
4:53 am 04:53 Clear 45 7.2 23 -5 42 42 SSE 8 13 29.92 1013 10 16 0.00 0.00
5:53 am 05:53 Clear 44 6.7 23 -5 43 43 Calm 29.95 1014 10 16 0.00 0.00
6:53 am 06:53 Mostly Cloudy 43 6.1 24 -4.4 47 47 NW 5 7 29.97 1015 10 16 0.00 0.00
7:53 am 07:53 Cloudy 45 7.2 24 -4.4 44 44 Calm 29.99 1016 10 16 0.00 0.00
8:53 am 08:53 Mostly Cloudy 48 8.9 24 -4.4 39 39 SSW 10 17 30.00 1016 10 16 0.00 0.00
9:53 am 09:53 Mostly Sunny 48 8.9 28 -2.2 46 46 SSE 16 26 30.01 1016 10 16 0.00 0.00
10:53 am 10:53 Cloudy 48 8.9 29 -1.7 48 48 SSE 12 19 30.02 1017 10 16 0.00 0.00
11:53 am 11:53 Cloudy 49 9.4 28 -2.2 44 44 SE 14 22 30.01 1016 10 16 0.00 0.00
12:53 pm 12:53 Mostly Sunny 53 11.7 26 -3.3 35 35 SE 12 19 29.98 1015 10 16 0.00 0.00
1:53 pm 13:53 Cloudy 51 10.6 27 -2.8 39 39 S 6 9 29.97 1015 10 16 0.00 0.00
2:32 pm 14:32 Mostly Cloudy 51 10.6 32 0 48 48 E 14 22 29.92 1013 10 16 0.00 0.00
2:53 pm 14:53 Sunny 51 10.6 32 0 48 48 SE 9 15 29.98 1015 10 16 0.00 0.00
3:53 pm 15:53 Cloudy with Light Rain 49 9.4 33 0.6 55 55 SE 12 19 29.99 1016 10 16 0.00 0.00
4:53 pm 16:53 Mostly Cloudy 48 8.9 31 -0.6 52 52 SSW 6 9 30.01 1016 10 16 0.00 0.00
5:53 pm 17:53 Mostly Cloudy 48 8.9 31 -0.6 52 52 Calm 30.03 1017 10 16 0.00 0.00
6:53 pm 18:53 Cloudy 47 8.3 32 0 56 56 SSW 10 17 30.05 1018 10 16 0.00 0.00
7:53 pm 19:53 Cloudy 46 7.8 32 0 58 58 WSW 6 9 30.06 1018 10 16 0.00 0.00
8:53 pm 20:53 Cloudy 45 7.2 33 0.6 63 63 W 6 9 30.06 1018 10 16 0.00 0.00
9:53 pm 21:53 Cloudy 46 7.8 32 0 58 58 E 9 15 30.07 1018 10 16 0.00 0.00
10:53 pm 22:53 Cloudy 45 7.2 32 0 61 61 E 5 7 30.06 1018 10 16 0.00 0.00
11:53 pm 23:53 Mostly Cloudy 44 6.7 32 0 63 63 ESE 3 6 30.06 1018 10 16 0.00 0.00

Powered by AerisWeather